This demonstration page uses our WeatherBlox Daily Observations layout. Learn more.

Left ArrowRight Arrow

36.19886, -115.1175

Hourly Observations for February 14, 2022

Temp ( °F °C ) Dew Point ( °F °C ) Humidity (%) Winds ( mph kmh ) Pressure ( in mb ) Visibility ( mi km ) Precip ( " mm )
12:53 am 00:53 Clear 51 10.6 11 -11.7 20 20 W 8 13 30.23 1024 10 16 0.00 0.00
1:53 am 01:53 Clear 50 10 9 -12.8 19 19 WNW 6 9 30.21 1023 10 16 0.00 0.00
2:53 am 02:53 Clear 47 8.3 10 -12.2 22 22 W 5 7 30.19 1023 10 16 0.00 0.00
3:53 am 03:53 Clear 48 8.9 11 -11.7 22 22 NNW 3 6 30.19 1022 10 16 0.00 0.00
4:53 am 04:53 Clear 44 6.7 12 -11.1 27 27 WNW 7 11 30.19 1022 10 16 0.00 0.00
5:53 am 05:53 Clear 44 6.7 13 -10.6 28 28 WNW 6 9 30.19 1022 10 16 0.00 0.00
6:53 am 06:53 Sunny 43 6.1 13 -10.6 29 29 NW 6 9 30.20 1023 10 16 0.00 0.00
7:53 am 07:53 Sunny 50 10 12 -11.1 22 22 Calm 30.20 1023 10 16 0.00 0.00
8:53 am 08:53 Sunny 54 12.2 12 -11.1 19 19 Calm 30.20 1023 10 16 0.00 0.00
9:53 am 09:53 Sunny 59 15 10 -12.2 14 14 E 3 6 30.19 1022 10 16 0.00 0.00
10:53 am 10:53 Sunny 63 17.2 9 -12.8 12 12 E 6 9 30.16 1022 10 16 0.00 0.00
11:53 am 11:53 Sunny 65 18.3 11 -11.7 12 12 E 5 7 30.11 1020 10 16 0.00 0.00
12:53 pm 12:53 Sunny 67 19.4 10 -12.2 11 11 E 3 6 30.05 1018 10 16 0.00 0.00
1:53 pm 13:53 Sunny 68 20 9 -12.8 10 10 SE 6 9 30.01 1016 10 16 0.00 0.00
2:53 pm 14:53 Sunny 70 21.1 10 -12.2 10 10 Calm 29.97 1015 10 16 0.00 0.00
3:53 pm 15:53 Sunny 70 21.1 10 -12.2 10 10 SE 8 13 29.93 1014 10 16 0.00 0.00
4:53 pm 16:53 Sunny 69 20.6 10 -12.2 10 10 E 3 6 29.90 1013 10 16 0.00 0.00
5:53 pm 17:53 Clear 66 18.9 10 -12.2 11 11 Calm 29.88 1012 10 16 0.00 0.00
6:53 pm 18:53 Clear 64 17.8 10 -12.2 12 12 Calm 29.86 1011 10 16 0.00 0.00
7:53 pm 19:53 Clear 62 16.7 9 -12.8 12 12 NNE 5 7 29.84 1011 10 16 0.00 0.00
8:53 pm 20:53 Clear 60 15.6 10 -12.2 14 14 Calm 29.83 1010 10 16 0.00 0.00
9:53 pm 21:53 Clear 59 15 11 -11.7 15 15 Calm 29.80 1009 10 16 0.00 0.00
10:53 pm 22:53 Clear 67 19.4 13 -10.6 12 12 S 20 31 29.76 1008 10 16 0.00 0.00
11:53 pm 23:53 Clear 66 18.9 15 -9.4 14 14 S 20 31 29.72 1007 10 16 0.00 0.00

Powered by AerisWeather